www.pogodaiklimat.ru

Погода и климат >> Архив погоды >> Россия >> Якутия >> Якутск


АРХИВ ПОГОДЫ в Якутске

Время (UTC), дата Ветер
(напр.,м/с)
 
Видим.   Явления Облачность Т
(С)
Тd
(С)
f
(%)
Тe
(С)
Тes
(С)
Комфортность P
(гПа)
Po
(гПа)
Тmin
(С)
Tmax
(С)
R
(мм)
R24
(мм)
S
(см)
09 13.09 З 5-11
{14}
50 км {дождь} 10/10 600 м
[Cb cap]
+7.8 +4.8 81 +4 +4 прохладно 997.4 985.3
12 13.09 З 6
{14}
50 км {дождь} 10/8 600 м
[Cb cap Ac trans]
+7.6 +2.6 71 +4 +4 по сезону 1000.2 988.1 +12.4 0.0
15 13.09 З 5 50 км 10/6 1000 м
[Sc Ac trans Ci fib]
+5.6 0.0 67 +1 +1 по сезону 1001.7 989.4
18 13.09 З 3 50 км 10/3 1000 м
[Sc Ac trans Ci fib]
+1.6 -4.1 66 -2 -2 прохладно 1003.3 990.9
21 13.09 З 3 50 км 8/0
[Ac trans Ci fib]
+0.1 -5.5 66 -4 -4 холодно 1004.8 992.2
00 14.09 З 3 50 км 5/0
[Ci fib]
+4.2 -6.8 45 +1 +3 прохладно 1005.8 993.4 -0.5
03 14.09 З 5 50 км 3/0
[Ci fib]
+7.7 -8.5 31 +5 +7 по сезону 1005.5 993.3
06 14.09 З 3 50 км 3/0
[Ci fib]
+9.4 -9.2 26 +8 +10 по сезону 1004.8 992.6
09 14.09 Ю 2 50 км 1/0
[Ci fib]
+9.1 -7.8 29 +8 +8 по сезону 1004.8 992.6
12 14.09 СЗ 1 50 км 3/0
[Ci fib]
-0.6 -3.5 81 -3 -3 холодно 1006.0 993.4 +10.0
15 14.09 штиль 0 50 км ясно -3.9 -5.7 87 -5 -5 холодно 1006.3 993.5
18 14.09 З 1 50 км 3/0
[Ci fib]
-5.1 -6.5 90 -8 -8 очень
холодно
1006.3 993.5
21 14.09 штиль 0 50 км 3/0
[Ci fib]
-6.2 -7.5 90 -7 -7 очень
холодно
1006.0 993.2
00 15.09 штиль 0 50 км 3/0
[Ci fib]
+3.3 -1.5 71 +3 +5 по сезону 1005.6 993.2 -6.5
03 15.09 В 4 50 км 8/3 1000 м
[Sc Ac trans Ci fib]
+11.4 -8.7 24 +10 +11 тепло 1003.7 991.6
06 15.09 В 4 50 км 6/3 1000 м
[Sc Ci fib]
+13.4 -9.4 20 +12 +14 тепло 1002.1 990.1
09 15.09 В 3 50 км 3/3 1000 м
[Sc Ci fib]
+11.8 -8.8 23 +11 +11 тепло 1002.6 990.5
12 15.09 В 3 50 км 3/3 1000 м
[Sc]
+7.6 -8.6 31 +6 +6 по сезону 1003.6 991.4 +13.6
15 15.09 штиль 0 20 км 4/3 1000 м
[Sc Ac trans Ci fib]
+0.6 -8.5 50 0 0 по сезону 1004.4 991.9
18 15.09 штиль 0 20 км 10/3 600 м
[Sc Ac trans Ci fib]
-0.3 -5.6 67 -1 -1 по сезону 1005.4 992.7
21 15.09 штиль 0 50 км 10/0
[Ac trans Ci fib]
-1.4 -7.0 66 -2 -2 прохладно 1006.1 993.3
00 16.09 С 1 50 км 10/0
[Ac trans Ci fib]
+3.9 +0.8 80 +3 +4 по сезону 1006.2 993.8 -1.9
03 16.09 СВ 1 50 км 10/10 600 м
[Cb cap]
+6.7 +1.2 68 +6 +6 по сезону 1006.0 993.7
06 16.09 СВ 2 50 км 10/8 600 м
[Cb cap Ac trans]
+9.3 -4.7 37 +8 +9 по сезону 1005.9 993.7
09 16.09 СЗ 2 50 км 10/8 600 м
[Cb cap Ac trans Ci fib]
+8.7 -2.9 44 +8 +8 по сезону 1006.2 994.0
12 16.09 С 3 20 км 10/8 1000 м
[Cb cap Ac trans]
+5.8 +1.1 72 +3 +3 по сезону 1006.5 994.2 +9.4
15 16.09 СЗ 3 20 км 10/6 600 м
[Cb cap Ac trans]
+4.9 +1.6 79 +2 +2 по сезону 1006.0 993.6
18 16.09 СЗ 3 20 км 10/6 600 м
[Cb cap Ac trans]
+3.7 +1.4 85 -0 -0 по сезону 1005.7 993.3
21 16.09 СЗ 3 20 км слаб. дождь 10/10 600 м
[Cb cap]
+2.6 +0.8 88 -2 -2 прохладно 1005.8 993.3
00 17.09 СЗ 4 20 км слаб. дождь 10/10 600 м
[Cb cap]
+3.3 +1.2 86 -1 -1 прохладно 1006.3 993.8 +2.5 2
03 17.09 СЗ 3 20 км слаб. дождь 10/10 600 м
[Cb cap]
+4.4 +2.7 89 +1 +1 прохладно 1006.3 994.0
06 17.09 СЗ 3 20 км слаб. дождь 10/10 600 м
[Cb cap]
+5.0 +3.3 89 +1 +1 очень
холодно
1007.0 994.7
09 17.09 СЗ 2 20 км слаб. дождь 10/10 600 м
[Cb cap]
+5.2 +3.3 88 +3 +3 прохладно 1008.4 996.0
12 17.09 СЗ 3 20 км {дождь} 10/10 600 м
[Sc]
+5.2 +3.2 87 +2 +2 по сезону 1008.9 996.5 +5.4 2
15 17.09 СЗ 3 20 км 10/10 600 м
[Sc]
+4.6 +1.9 83 +1 +1 по сезону 1008.9 996.5
18 17.09 СЗ 3 20 км слаб. дождь 10/10 600 м
[Sc]
+2.6 +1.1 90 -2 -2 по сезону 1009.6 997.1
21 17.09 ЮЗ 1 10 км слаб. ливневой дождь со снегом 10/10 600 м
[Cb cap]
+0.9 -0.1 93 -1 -1 по сезону 1010.7 998.1
00 18.09 З 1 20 км слаб. дождь 10/10 600 м
[Cb cap]
+1.8 +0.3 90 0 0 по сезону 1011.7 999.1 +0.5 4
03 18.09 СЗ 2 50 км {дождь} 10/10 600 м
[Cb cap]
+2.5 +0.6 87 -1 -1 холодно 1012.5 999.9
06 18.09 СЗ 2 50 км {дождь} 10/10 600 м
[Cb cap]
+2.9 +0.9 87 -0 -0 очень
холодно
1013.7 1001.2
09 18.09 ЮЗ 1 50 км 10/10 600 м
[Cb cap]
+2.8 +1.1 89 +1 +1 прохладно 1015.1 1002.6
12 18.09 ЮЗ 1 50 км 10/10 600 м
[Cb cap]
+2.0 +0.5 90 0 0 по сезону 1016.2 1003.6 +3.2 0.0
15 18.09 штиль 0 50 км {дождь} 10/8 600 м
[Cb cap Ac trans]
+0.9 -0.1 93 -0 -0 по сезону 1016.0 1003.3
18 18.09 ЮЗ 1 50 км {дождь} 10/8 600 м
[Cb cap Ac trans]
+0.7 +0.2 96 -1 -1 по сезону 1016.1 1003.4
21 18.09 Ю 1 4000 м дымка 10/10 600 м
[Cb cap]
+0.6 +0.1 96 -2 -2 прохладно 1015.9 1003.2
00 19.09 В 1 4000 м дымка 10/8 300 м
[Sc Ac trans Ci fib]
+1.2 +0.8 97 -1 -1 прохладно 1015.4 1002.8 -0.1 0.3
03 19.09 В 2 50 км 10/1 600 м
[Cu hum Ac trans Ci fib]
+7.9 +3.3 73 +6 +8 по сезону 1013.2 1000.9
06 19.09 В 4 50 км 10/3 600 м
[Cu med, cong Ac trans Cs]
+8.2 +2.8 69 +5 +6 прохладно 1011.3 999.0
09 19.09 В 3 50 км 10/8 600 м
[Sc Ac trans Cs]
+7.6 +2.1 68 +5 +5 по сезону 1010.9 998.6
12 19.09 В 3 50 км 10/8 600 м
[Sc Ac trans]
+6.6 +1.6 70 +4 +4 по сезону 1010.5 998.2 +9.7
15 19.09 В 2 20 км слаб. дождь 10/10 600 м
[Sc]
+5.0 +2.7 85 +2 +2 по сезону 1009.9 997.5
18 19.09 ЮВ 2 10 км ливневой дождь 10/10 600 м
[Cb cap]
+3.8 +2.9 94 +1 +1 по сезону 1009.5 997.1
21 19.09 ЮЗ 3 50 км в посл. час ливневой дождь 10/10 600 м
[Cb cap]
+2.5 +0.9 89 -2 -2 прохладно 1010.8 998.3
00 20.09 Ю 3 50 км {ливн. осадки} 10/10 600 м
[Cb cap]
+3.0 +1.3 89 -1 -1 по сезону 1011.7 999.2 +2.4 5
03 20.09 СЗ 4 20 км слаб. дождь 10/10 600 м
[Cb cap]
+3.9 +1.8 86 -1 -1 холодно 1013.8 1001.3
06 20.09 З 5 50 км в посл. час ливневой дождь 10/8 600 м
[Cb cap Ac trans Ci fib]
+5.6 +2.9 83 +1 +1 холодно 1015.8 1003.4

 

Местоположение метеостанции Якутск (Якутия, Россия): широта 62.00 долгота 129.60 высота над уровнем моря 101 м.

В архиве по умолчанию представлена погода в Якутске за последнюю неделю. Архивные данные за месяц целиком и за предыдущие месяцы, начиная с января 2011 года, Вы можете получить, выбрав интересующий диапазон дат из раскрывающегося списка и нажав кнопку "Ввод!".


*Определитесь, кто Вы:
робот инопланетянин человек

Внимание! Время в таблицах - всемирное. Для получения местного времени необходимо прибавить поправку, которая равна 9 ч.

Смотрите также архив погоды в соседних городах и на ближайших метеорологических станциях:

Погода в Покровске (Якутия, Россия) (64 км)
Погода в Намцах (Якутия, Россия) (80 км)
Погода в Бердигестяхе (Якутия, Россия) (138 км)
Погода в Чурапче (Якутия, Россия) (157 км)
Погода в Батамае (Якутия, Россия) (169 км)
Погода в Тегюльте (Якутия, Россия) (172 км)
Погода в Амге (Якутия, Россия) (173 км)
Погода в Верхоянском Перевозе (Якутия, Россия) (191 км)
Погода в Ытык-Кюёле (Якутия, Россия) (207 км)
Погода в Сеген-Кюеле (Якутия, Россия) (225 км)

Пояснения к столбцам:

Ветер - указаны скорость ветра в м/с - средняя за 10 мин, порывы в срок и между сроками (в фигурных скобках) и направление, откуда дует ветер: С - северный, СВ - северо-восточный, В - восточный, ЮВ - юго-восточный, Ю - южный, ЮЗ - юго-западный, З - западный, СЗ - северо-западный.
Видимость - горизонтальная дальность видимости в метрах или километрах. При видимости от 1 до 10 км при отсутствии осадков обычно наблюдается дымка, при ухудшении видимости до 1 км и менее - туман. В сухую погоду видимость может ухудшаться дымом, пылью или мглою.
Явления - указаны атмосферные явления, наблюдавшиеся в срок или в последний час перед сроком; фигурными скобками обозначены явления, наблюдавшиеся между сроками (за 1-3 часа до срока); квадратными скобками обозначены град или гололедные отложения с указанием их диаметра в мм.
Облачность - указаны через наклонную черту общая и нижняя облачность в баллах и высота нижней границы облаков в метрах; квадратными скобками обозначены формы облаков: Ci - перистые, Cs - перисто-слоистые, Cc - перисто-кучевые, Ac - высококучевые, As - высокослоистые, Sc - слоисто-кучевые, Ns - слоисто-дождевые, Cu - кучевые, Cb - кучево-дождевые. Подробнее классификацию облаков см. в Атласе облаков (PDF).
T - Температура воздуха - температура, измеренная на высоте 2 м над землей.
Td - Температура точки росы - температура, при понижении до которой содержащийся в воздухе водяной пар достигнет насыщения.
f - Относительная влажность воздуха - влажноcть воздуха, измеренная на высоте 2 м над землей.
Te - Эффективная температура - температура, которую ощущает одетый по сезону человек в тени. Характеристика душности погоды. При расчете учитывается влияние влажности воздуха и скорости ветра на теплоощущения человека.
Tes - Эффективная температура на солнце - температура, которую ощущает человек, с поправкой на солнечный нагрев. Характеристика знойности погоды. Зависит от высоты солнца над горизонтом, облачности и скорости ветра. Ночью, в пасмурную погоду, а также при ветре 12 м/с и более поправка равна нулю.
P - Атмосферное давление - приведенное к уровню моря атмосферное давление.
Po - Атмосферное давление - измеренное на уровне метеостанции атмосферное давление.
Tmin - Минимальная температура - минимум температуры воздуха на высоте 2 м над землей.
Tmax - Максимальная температура - максимум температуры воздуха на высоте 2 м над землей.
R - Количество осадков - Количество выпавших осадков за период времени, мм. При наведении курсора мыши на число - период времени, за который выпало указанное количество осадков.
R24 - Количество осадков - Количество выпавших осадков за 24 часа, мм.
S - Снежный покров - Высота снежного покрова, см. При наведении курсора мыши на число - состояние снежного покрова и степень покрытия местности в баллах.